Location: Shenandoah County Park
(38.9356°N, 78.4524°W)
Time: 02:19:26
(UTC-04:00)

Hubble Space Telescope - Visible Passes

Search period start: 24 September 2023 00:00
Search period end: 04 October 2023 00:00
Orbit: 522 x 525 km, 28.5° (Epoch: 23 September)

Date Brightness Start Highest point End Pass type
(mag) Time Alt. Az. Time Alt. Az. Time Alt. Az.
24 Sep 3.4 04:45:39 12° SE 04:45:39 12° SE 04:46:08 10° SE visible
24 Sep 2.8 06:21:16 10° SW 06:23:30 14° SSW 06:25:44 10° SSE visible
25 Sep 2.9 06:06:15 11° SW 06:07:58 13° SSW 06:09:56 10° SSE visible
26 Sep 2.9 05:51:52 12° SSW 05:52:26 12° SSW 05:54:00 10° S visible
27 Sep 3.1 05:37:31 10° S 05:37:31 10° S 05:37:45 10° S visible
